Regional Weather Roundup
Issued by NWS State College, PA

Home | Current Version | Previous Version | Text Only | Print | Product List | Glossary On
Versions: 1 2 3 4 5 6 7 8 9 10 11 12 13 14 15 16 17 18 19 20 21 22 23 24 25 26 27 28 29 30 31 32 33 34 35 36 37 38 39 40 41 42 43 44 45 46 47 48 49 50
000
ASUS41 KCTP 161410
RWRCTP

REGIONAL WEATHER ROUNDUP
NATIONAL WEATHER SERVICE STATE COLLEGE PA
1000 AM EDT WED AUG 16 2017

Note: "fair" indicates few or no clouds below 12,000 feet with no
significant weather and/or obstructions to visibility.

* = STATION THAT DOES NOT REPORT PRECIPITATION /E.G. RAIN...SNOW...ETC/
    THUNDER OR FOG.

PAZ002>004-007>009-013>016-020>023-029>032-161500-
WESTERN PENNSYLVANIA

CITY           SKY/WX    TMP DP  RH WIND       PRES   REMARKS
ERIE           MOSUNNY   73  63  70 SW3       30.09S
MEADVILLE      SUNNY     70  64  81 N6        30.11S
FRANKLIN*      SUNNY     66  61  82 CALM      30.11S
NEW CASTLE     FAIR      67  63  87 NE5       30.11S
BEAVER COUNTY  NOT AVBL
BUTLER*        SUNNY     72  64  78 NE6       30.10S
PITTSBURGH INT MOSUNNY   75  64  68 N3        30.09S
PITTSBURGH     MOSUNNY   75  63  66 E3        30.09S
INDIANA*       SUNNY     73  66  78 CALM      30.12S
LATROBE        MOSUNNY   72  68  88 CALM      30.11R
WASHINGTON CO* MOSUNNY   72  66  83 CALM      30.10S
$$

PAZ004>006-010>012-017>019-024>028-033>037-041-042-045-046-049>053-161500-
CENTRAL PENNSYLVANIA

CITY           SKY/WX    TMP DP  RH WIND       PRES   REMARKS
BRADFORD       MOSUNNY   62  61  96 W3        30.11S
DUBOIS         SUNNY     70  62  76 W5        30.10R
CLEARFIELD     SUNNY     70  65  84 SW3       30.10R
JOHNSTOWN      MOSUNNY   72  64  76 NW8       30.12R
ALTOONA        PTSUNNY   74  66  76 NW5       30.09R
STATE COLLEGE  MOSUNNY   72  66  83 CALM      30.07R
WILLIAMSPORT   SUNNY     73  67  81 CALM      30.02F
SELINSGROVE    MOSUNNY   74  69  85 NE6       30.02F
FT INDIANTOWN  PTSUNNY   74  74 100 NE6       30.01F
CAPITAL CITY   CLOUDY    76  69  79 CALM      30.02S HAZE
HARRISBURG     CLOUDY    73  71  93 W3        30.01S FOG
YORK           CLOUDY    70  70 100 CALM      30.02S FOG
$$

PAZ038>040-043-044-047-048-054-055-060>062-067>071-161500-
EASTERN PENNSYLVANIA

CITY           SKY/WX    TMP DP  RH WIND       PRES   REMARKS
SCRANTON       CLOUDY    69  65  86 CALM      30.05S FOG
MOUNT POCONO   MOSUNNY   71  63  75 N9        30.06R
ALLENTOWN      SUNNY     71  67  87 CALM      30.00S
QUAKERTOWN*    SUNNY     75  68  78 N6        30.01S
READING        PTSUNNY   73  72  96 NW7       30.01R
LANCASTER      CLOUDY    71  71 100 W5        30.02S FOG
COATESVILLE    MOSUNNY   75  72  88 NW7       30.03R FOG
POTTSTOWN      SUNNY     75  72  90 NW5       30.01S FOG
BLUE BELL      SUNNY     73  70  88 CALM      30.01R
DOYLESTOWN     MOSUNNY   76  69  79 CALM      29.99S
WILLOW GROVE   NOT AVBL
NORTH PHILA    SUNNY     80  70  71 N7        30.00R
PHILADELPHIA   PTSUNNY   80  70  71 NW7       29.98S
$$



USA.gov is the U.S. government's official web portal to all federal, state and local government web resources and services.